www.pogodaiklimat.ru

Погода и климат >> Архив погоды >> Коморские Острова >> Морони


АРХИВ ПОГОДЫ в Морони

Время (UTC), дата Ветер
(напр.,м/с)
 
Видим.   Явления Облачность Т
(С)
Тd
(С)
f
(%)
Тe
(С)
Тes
(С)
Комфортность P
(гПа)
Po
(гПа)
Тmin
(С)
Tmax
(С)
R
(мм)
R24
(мм)
S
(см)
03 20.06 Ю 5 30 км 9/9 600 м
[Cu Sc Ac trans]
+23.3 +22.5 95 +32 +32 очень
душно
1016.7 1012.7
06 20.06 ЮВ 3 20 км 10/3 600 м
[Cu Sc As op]
+23.0 +22.3 96 +31 +32 очень
душно
1018.6 1014.3 +24.0 53
09 20.06 Ю 5 30 км 10/4 600 м
[Cu Sc Ac trans]
+25.5 +22.6 84 +34 +36 очень
душно
1017.4 1013.2
12 20.06 СЗ 2 30 км {дождь} 9/3 600 м
[Cu Sc Ac As]
+24.3 +22.6 90 +32 +34 очень
душно
1015.9 1011.7 16
15 20.06 ЮВ 2 30 км 10/1 600 м
[Cu Sc As op]
+23.0 +21.1 89 +31 +31 очень
душно
1017.1 1012.8
18 20.06 ЮВ 6 30 км 8/1 600 м
[Cu Sc As op]
+23.6 +21.6 89 +30 +30 очень
душно
1018.4 1014.1 +28.5
21 20.06 ЮВ 2 30 км 8/8 600 м
[Cu Sc Ac trans]
+22.5 +20.3 87 +29 +29 очень
душно
1017.9 1013.6
00 21.06 В 2 30 км 5/5 600 м
[Cu Sc Ac trans]
+21.2 +18.6 85 +26 +26 душно 1016.5 1012.2
03 21.06 В 3 30 км 3/3 600 м
[Cu Sc]
+20.5 +19.0 91 +25 +25 комфорт 1017.4 1013.1
06 21.06 Ю 3 30 км 4/3 600 м
[Cu Sc]
+26.5 +21.4 74 +34 +38 очень
душно
1018.8 1014.5 +21.0 16
09 21.06 ЮЗ 5 30 км 4/3 600 м
[Cu Sc]
+26.5 +22.9 81 +35 +41 очень
душно
1017.8 1013.6
12 21.06 Ю 4 30 км 5/5 600 м
[Cu Sc]
+28.0 +22.9 74 +37 +40 очень
душно
1016.2 1012.0
15 21.06 Ю 5 25 км ливневой дождь 10/10 <50 м
[Cu Sc]
+25.4 +24.7 96 +36 +36 очень
душно
1016.8 1012.6
18 21.06 ЮВ 3 30 км 8/8 600 м
[Cu Sc]
+23.0 +22.3 96 +31 +31 очень
душно
1017.9 1013.6 +28.5 3
21 21.06 ЮВ 2 30 км 4/4 600 м
[Cu Sc]
+21.8 +21.5 98 +28 +28 душно 1016.9 1012.6
03 22.06 ЮВ 2 25 км 5/4 600 м
[Cu Sc Ac trans]
+20.8 +19.6 93 +26 +26 душно 1016.2 1011.8
06 22.06 Ю 3 30 км 8/8 600 м
[Cu Sc Ac trans]
+26.0 +22.4 81 +34 +35 очень
душно
1017.3 1013.0
09 22.06 Ю 6 30 км 8/8 600 м
[Cu Sc Ac trans]
+27.5 +23.2 77 +37 +38 очень
душно
1016.1 1011.9
12 22.06 ЮЗ 4 30 км {дождь} 9/8 600 м
[Cu Sc Ac trans]
+26.5 +23.7 85 +36 +37 очень
душно
1014.9 1010.7 0.0
15 22.06 Ю 5 30 км 9/9 600 м
[Cu Sc Ac trans]
+23.0 +23.0 100 +32 +32 очень
душно
1015.9 1011.6
18 22.06 В 3 30 км {дождь} 6/6 600 м
[Cu Sc Ac trans]
+22.5 +21.8 96 +30 +30 очень
душно
1016.8 1012.5 +29.0 14
21 22.06 В 3 30 км 4/4 600 м
[Cu Sc]
+21.0 +20.4 96 +27 +27 душно 1015.9 1011.6
00 23.06 30 км н/о +21.0 +19.5 91 +26 +26 душно 1014.5 1010.2
03 23.06 В 3 30 км 6/5 600 м
[Cu Sc Ac trans]
+21.5 +20.6 95 +27 +27 душно 1014.6 1010.3
06 23.06 З 1 30 км 5/4 600 м
[Cu Sc Ac trans]
+26.7 +22.8 79 +35 +39 очень
душно
1016.4 1012.2 +20.7 13
09 23.06 ЮЗ 6 30 км 6/5 660 м
[Cu med, cong Ac trans]
+28.3 +24.2 78 +39 +42 очень
душно
1015.3 1011.1
12 23.06 ЮЗ 6 30 км 4/4 600 м
[Cu Sc]
+27.0 +23.9 83 -7 -5 очень
холодно
1013.8 1009.6
15 23.06 ЮЗ 6 30 км 3/3 600 м
[Cu Sc]
+26.0 +23.9 88 +36 +36 очень
душно
1014.5 1010.3
18 23.06 ЮВ 2 30 км 3/3 600 м
[Cu Sc]
+22.8 +21.6 93 +30 +30 очень
душно
1015.4 1011.1 +29.0
21 23.06 ЮВ 2 30 км 4/4 600 м
[Cu Sc]
+22.5 +21.8 96 +30 +30 очень
душно
1015.1 1010.8
03 24.06 В 2 30 км 3/3 600 м
[Cu Sc]
+21.5 +20.0 91 +27 +27 душно 1014.4 1010.1
06 24.06 З 2 30 км 3/1 600 м
[Cu Sc]
+26.5 +22.1 77 +34 +40 очень
душно
1016.0 1011.3 +21.5
09 24.06 ЮЗ 4 30 км 5/3 600 м
[Cu Sc]
+28.0 +25.2 85 +41 +47 опасность
перегрева
1014.9 1010.7
12 24.06 ЮЗ 4 30 км в посл. час дождь 8/8 600 м
[Cu Sc]
+27.4 +25.5 89 +40 +41 очень
душно
1013.3 1009.1 0.0
15 24.06 ЮЗ 6 30 км 4/4 600 м
[Cu med, cong Ci sp]
+26.2 +24.7 91 +37 +37 очень
душно
1014.2 1010.0
18 24.06 30 км н/о +23.4 +23.1 98 +33 +33 очень
душно
1015.0 1011.6 +29.0
21 24.06 В 3 30 км 1/1 600 м
[Cu hum]
+22.2 +21.2 94 +29 +29 очень
душно
1015.3 1011.0
00 25.06 В 2 30 км 3/3 600 м
[Cu Sc]
+21.5 +20.8 96 +27 +27 душно 1013.9 1009.6
03 25.06 ЮВ 2 30 км 3/3 600 м
[Cu Sc]
+22.0 +19.3 85 +27 +27 душно 1015.1 1010.8
06 25.06 З 1 30 км 1/1 600 м
[Cu Sc]
+27.5 +20.8 67 +34 +41 очень
душно
1016.5 1012.3 +21.5
09 25.06 ЮЗ 6 30 км 6/3 600 м
[Cu Sc]
+28.5 +23.5 74 +39 +42 очень
душно
1015.9 1011.8
12 25.06 Ю 4 30 км 9/3 600 м
[Cu Sc Ac lent]
+27.6 +22.4 73 +36 +37 очень
душно
1014.5 1010.3
15 25.06 В 4 20 км слаб. дождь 10/3 600 м
[Cu Sc As trans]
+23.9 +22.6 92 +31 +31 очень
душно
1015.7 1011.4
18 25.06 Ю 2 30 км 4/1 600 м
[Cu Sc]
+23.2 +21.4 90 +31 +31 очень
душно
1016.8 1012.5 +29.5
00 26.06 В 2 30 км 3/3 600 м
[Cu Sc]
+22.0 +20.5 91 +28 +28 душно 1014.8 1010.5
03 26.06 В 3 30 км 4/4 600 м
[Cu Sc]
+21.5 +20.0 91 +27 +27 душно 1015.9 1011.5
06 26.06 З 2 30 км 6/1 600 м
[Cu Sc Ac cast]
+27.0 +21.9 74 +35 +38 очень
душно
1017.0 1013.2 +21.0 7
09 26.06 Ю 3 30 км осадки на расстоянии 8/3 600 м
[Cu Sc Ac trans]
+26.5 +22.1 77 +34 +40 очень
душно
1017.1 1012.9
12 26.06 Ю 10 30 км 6/3 600 м
[Cu Sc Ci sp]
+27.8 +22.3 72 +36 +37 очень
душно
1015.2 1011.0
15 26.06 ЮЗ 10 30 км 5/1 600 м
[Cu Sc Ci sp]
+26.0 +21.6 77 +33 +33 очень
душно
1016.5 1012.2
18 26.06 Ю 8 30 км 3/1 600 м
[Cu Sc]
+25.1 +21.1 78 +32 +32 очень
душно
1018.1 1013.8 +29.5
21 26.06 Ю 1 30 км 3/1 600 м
[Cu Sc]
+24.0 +20.9 83 +30 +30 очень
душно
1017.2 1013.2
00 27.06 Ю 2 30 км 1/1 600 м
[Cu Sc]
+22.2 +19.6 85 +28 +28 душно 1016.2 1011.9

 

Местоположение метеостанции Морони (Коморские Острова): широта -11.53 долгота 43.27 высота над уровнем моря 29 м.

В архиве по умолчанию представлена погода в Морони за последнюю неделю. Архивные данные за месяц целиком и за предыдущие месяцы, начиная с января 2011 года, Вы можете получить, выбрав интересующий диапазон дат из раскрывающегося списка и нажав кнопку "Ввод!".


*Определитесь, кто Вы:
робот инопланетянин человек

Внимание! Время в таблицах - всемирное. Для получения местного времени необходимо прибавить поправку, которая равна 3 ч.

Смотрите также архив погоды в соседних городах и на ближайших метеорологических станциях:

Погода в Дзаудзи (Коморские Острова) (260 км)
Погода в Пембе (Мадагаскар) (339 км)
Погода в Мтваре (Танзания) (366 км)
Погода на Острове Глорьёз (Реюньон) (428 км)
Погода в Лумбо (Мозамбик) (480 км)
Погода в Монтепуезе (Мозамбик) (494 км)
Погода в Махадзанге (Мадагаскар) (567 км)
Погода в Аэропорту Fascene (Мадагаскар) (583 км)
Погода в Нампула (Мозамбик) (587 км)
Погода в Бесалампи (Мадагаскар) (595 км)

Пояснения к столбцам:

Ветер - указаны скорость ветра в м/с - средняя за 10 мин, порывы в срок и между сроками (в фигурных скобках) и направление, откуда дует ветер: С - северный, СВ - северо-восточный, В - восточный, ЮВ - юго-восточный, Ю - южный, ЮЗ - юго-западный, З - западный, СЗ - северо-западный.
Видимость - горизонтальная дальность видимости в метрах или километрах. При видимости от 1 до 10 км при отсутствии осадков обычно наблюдается дымка, при ухудшении видимости до 1 км и менее - туман. В сухую погоду видимость может ухудшаться дымом, пылью или мглою.
Явления - указаны атмосферные явления, наблюдавшиеся в срок или в последний час перед сроком; фигурными скобками обозначены явления, наблюдавшиеся между сроками (за 1-3 часа до срока); квадратными скобками обозначены град или гололедные отложения с указанием их диаметра в мм.
Облачность - указаны через наклонную черту общая и нижняя облачность в баллах и высота нижней границы облаков в метрах; квадратными скобками обозначены формы облаков: Ci - перистые, Cs - перисто-слоистые, Cc - перисто-кучевые, Ac - высококучевые, As - высокослоистые, Sc - слоисто-кучевые, Ns - слоисто-дождевые, Cu - кучевые, Cb - кучево-дождевые. Подробнее классификацию облаков см. в Атласе облаков (PDF).
T - Температура воздуха - температура, измеренная на высоте 2 м над землей.
Td - Температура точки росы - температура, при понижении до которой содержащийся в воздухе водяной пар достигнет насыщения.
f - Относительная влажность воздуха - влажноcть воздуха, измеренная на высоте 2 м над землей.
Te - Эффективная температура - температура, которую ощущает одетый по сезону человек в тени. Характеристика душности погоды. При расчете учитывается влияние влажности воздуха и скорости ветра на теплоощущения человека.
Tes - Эффективная температура на солнце - температура, которую ощущает человек, с поправкой на солнечный нагрев. Характеристика знойности погоды. Зависит от высоты солнца над горизонтом, облачности и скорости ветра. Ночью, в пасмурную погоду, а также при ветре 12 м/с и более поправка равна нулю.
P - Атмосферное давление - приведенное к уровню моря атмосферное давление.
Po - Атмосферное давление - измеренное на уровне метеостанции атмосферное давление.
Tmin - Минимальная температура - минимум температуры воздуха на высоте 2 м над землей.
Tmax - Максимальная температура - максимум температуры воздуха на высоте 2 м над землей.
R - Количество осадков - Количество выпавших осадков за период времени, мм. При наведении курсора мыши на число - период времени, за который выпало указанное количество осадков.
R24 - Количество осадков - Количество выпавших осадков за 24 часа, мм.
S - Снежный покров - Высота снежного покрова, см. При наведении курсора мыши на число - состояние снежного покрова и степень покрытия местности в баллах.